Regional Weather Roundup
Issued by NWS

Home | Current Version | Previous Version | Graphics & Text | Print | Product List | Glossary On
Versions: 1 2 3 4 5 6 7 8 9 10 11 12 13 14 15 16 17 18 19 20 21 22 23 24 25 26 27 28 29 30 31 32 33 34 35 36 37 38 39 40 41 42 43 44 45 46 47 48 49 50
000
ASUS45 KCYS 230210
RWRWY

WYOMING REGIONAL WEATHER ROUNDUP
NATIONAL WEATHER SERVICE CHEYENNE WY
700 PM MST SAT NOV 22 2014

NOTE:  "FAIR" INDICATES FEW OR NO CLOUDS BELOW 12,000 FEET
WITH NO SIGNIFICANT WEATHER AND/OR OBSTRUCTIONS TO VISIBILITY.

WYZ001-230300-
YELLOWSTONE NATIONAL PARK

CITY           SKY/WX    TMP DP  RH WIND       PRES   REMARKS
LK YELLOWSTONE   N/A     17  11  77 W5        29.68R WCI  10
W YELLOWSTONE  NOT AVBL

$$
WYZ002>013-054>058-071-098>099-230300-
NORTHERN WYOMING

CITY           SKY/WX    TMP DP  RH WIND       PRES   REMARKS
JACKSON        CLEAR     30  16  55 W18G32    29.69R WCI  18
CODY           MOCLDY    39   9  28 W8G17     29.58R WCI  34
GREYBULL       CLOUDY    36  28  73 NW7       29.55R WCI  30
WORLAND        CLOUDY    36  30  79 NE10      29.56R WCI  28
SHERIDAN       CLOUDY    38  32  79 W7        29.52R WCI  33
BUFFALO        CLOUDY    35  28  75 N13G24    29.53R WCI  26
GILLETTE       CLOUDY    35  32  88 NW24G33   29.49R WCI  23
HULETT           N/A    N/A N/A N/A MISG        N/A
NEWCASTLE      LGT RAIN  43  32  65 MISG      29.48F

$$
WYZ014>020-022>026-101>103-230300-
CENTRAL WYOMING

CITY           SKY/WX    TMP DP  RH WIND       PRES   REMARKS
BIG PINEY      CLOUDY    43  24  47 W17       29.64F
PINEDALE       CLOUDY    30  27  86 NW6       29.67R WCI  24
DUBOIS         FAIR      28  14  54 W20G28    29.62R WCI  15
LANDER         NOT AVBL
RIVERTON       CLOUDY    36  27  69 NW25G37   29.56R WCI  24
CASPER         MOCLDY    39  30  70 SW25G32   29.50F WCI  28
DOUGLAS        PTCLDY   N/A N/A N/A SW25G37   29.48F

$$
WYZ021-027>030-104>119-230300-
SOUTHERN WYOMING

CITY           SKY/WX    TMP DP  RH WIND       PRES   REMARKS
EVANSTON       CLOUDY    28  25  88 SW16      29.78F WCI  16
KEMMERER       CLOUDY    28  27  93 W10       29.74R WCI  19
FORT BRIDGER   CLOUDY    31  29  93 SW16      29.79F WCI  20
ROCK SPRINGS   CLOUDY    31  27  85 SW23G33   29.71S WCI  18
DIXON          LGT SNOW  36  31  85 W15G23    29.77R WCI  26
RAWLINS        FLURRIES  32  29  88 W24       29.67F WCI  19
SARATOGA       CLOUDY    36  30  80 SW20G32   29.67R WCI  25
LARAMIE        PTCLDY    35  25  66 SW21      29.61F WCI  24
CHEYENNE       MOCLDY    41  23  48 W8        29.58F
TORRINGTON     CLOUDY    45  30  55 W9        29.52S
PINE BLUFFS    FAIR      41  25  52 SW10      29.56F

$$


USA.gov is the U.S. government's official web portal to all federal, state and local government web resources and services.